Overview Statistics Trail Chart Weather Telemetry Raw packets
 

This is the latest recevied weather packets stored in our database for station/object SP5MRF-11. If no packets are shown the sender has not sent any weather packets the latest 10 day(s).

<< 4 5 6 7 8 9 10 >>
Time Temp. Humidity Pressure Rain* Wind** Luminosity Snow
1788454056 20.56° C 48% 1015.9 hPa - - - -
1788453156 21.11° C 48% 1016 hPa - - - -
1788452256 21.67° C 48% 1016.1 hPa - - - -
1788451408 22.22° C 47% 1016.1 hPa - - - -
1788451355 22.22° C 47% 1016.1 hPa - - - -
1788450455 22.22° C 46% 1016.2 hPa - - - -
1788449555 22.22° C 46% 1016.3 hPa - - - -
1788448672 22.78° C 46% 1016.3 hPa - - - -
1788447755 23.33° C 46% 1016.6 hPa - - - -
1788446855 22.78° C 46% 1016.7 hPa - - - -
1788445954 22.78° C 45% 1016.8 hPa - - - -
1788445054 22.78° C 45% 1016.9 hPa - - - -
1788444185 23.33° C 45% 1017 hPa - - - -
1788444154 23.33° C 45% 1017 hPa - - - -
1788443254 23.89° C 45% 1017.1 hPa - - - -
1788442386 23.89° C 45% 1017.1 hPa - - - -
1788442354 23.89° C 45% 1017.1 hPa - - - -
1788441454 23.89° C 45% 1017.3 hPa - - - -
1788440553 24.44° C 44% 1017.3 hPa - - - -
1788439653 24.44° C 44% 1017.5 hPa - - - -
1788438816 25° C 43% 1017.6 hPa - - - -
1788438753 25° C 43% 1017.6 hPa - - - -
1788437853 25.56° C 43% 1017.8 hPa - - - -
1788436953 26.67° C 42% 1017.9 hPa - - - -
1788436053 30° C 39% 1018 hPa - - - -

* Rain since midnight (hover to see other rain measurements)
** Current wind speed in m/s (hover to see current wind gust speed)